Location: Gro�bocka
(50.8204°N, 11.9702°E)
Time: 01:35:08
(UTC+00:00)

Meteor 2-3 Rocket - Pass Details

Date: 29 October 2020
Orbit: 842 x 885 km, 81.2° (Epoch: 23 November)

Event Time Altitude Azimuth Distance (km) Brightness Sun altitude
Rises 18:10:55 0° 349° (N) 3,457 7.1 -22.5°
Reaches altitude 10° 18:13:24 10° 353° (N) 2,522 6.3 -22.9°
Maximum altitude 18:19:04 59° 73° (ENE) 1,009 3.7 -23.7°
Enters shadow 18:19:34 57° 96° (E) 1,031 3.7 -23.8°
